Time,TemperatureF,DewpointF,PressureIn,WindDirection,WindDirectionDegrees,WindSpeedMPH,WindSpeedGustMPH,Humidity,HourlyPrecipIn,Conditions,Clouds,dailyrainin,SolarRadiationWatts/m^2,SoftwareType,DateUTC
2013-02-17 00:11:00,55.7,46.0,30.04,NNW,340,4.0,-999.0,69,-99.99,,,0.00,0,weatherlink.com 1.10,2013-02-17 05:11:00,
2013-02-17 00:26:00,55.4,45.0,30.03,NW,309,8.0,-999.0,69,-99.99,,,0.00,0,weatherlink.com 1.10,2013-02-17 05:26:00,
2013-02-17 00:41:00,55.3,45.0,30.03,WNW,298,2.0,-999.0,69,-99.99,,,0.00,0,weatherlink.com 1.10,2013-02-17 05:41:00,
2013-02-17 00:56:00,55.1,45.0,30.03,WNW,290,1.0,-999.0,69,-99.99,,,0.00,0,weatherlink.com 1.10,2013-02-17 05:56:00,
2013-02-17 01:11:00,55.0,45.0,30.04,WNW,284,3.0,-999.0,69,-99.99,,,0.00,0,weatherlink.com 1.10,2013-02-17 06:11:00,
2013-02-17 01:26:00,54.8,45.0,30.04,North,360,6.0,-999.0,69,-99.99,,,0.00,0,weatherlink.com 1.10,2013-02-17 06:26:00,
2013-02-17 01:41:00,54.7,45.0,30.04,WNW,296,5.0,-999.0,69,-99.99,,,0.00,0,weatherlink.com 1.10,2013-02-17 06:41:00,
2013-02-17 01:56:00,54.5,45.0,30.04,NNW,346,5.0,-999.0,70,-99.99,,,0.00,0,weatherlink.com 1.10,2013-02-17 06:56:00,
2013-02-17 02:11:00,54.2,45.0,30.04,North,351,6.0,-999.0,70,-99.99,,,0.00,0,weatherlink.com 1.10,2013-02-17 07:11:00,
2013-02-17 02:26:00,54.1,45.0,30.04,NW,320,6.0,-999.0,70,-99.99,,,0.00,0,weatherlink.com 1.10,2013-02-17 07:26:00,
2013-02-17 02:41:00,53.8,45.0,30.04,NW,314,8.0,-999.0,71,-99.99,,,0.00,0,weatherlink.com 1.10,2013-02-17 07:41:00,
2013-02-17 02:56:00,53.5,44.0,30.04,NNW,347,4.0,-999.0,71,-99.99,,,0.00,0,weatherlink.com 1.10,2013-02-17 07:56:00,
2013-02-17 03:11:00,53.3,44.0,30.04,WNW,290,1.0,-999.0,71,-99.99,,,0.00,0,weatherlink.com 1.10,2013-02-17 08:11:00,
2013-02-17 03:26:00,52.9,43.0,30.04,WNW,295,6.0,-999.0,70,-99.99,,,0.00,0,weatherlink.com 1.10,2013-02-17 08:26:00,
2013-02-17 03:41:00,52.8,42.0,30.04,West,280,5.0,-999.0,68,-99.99,,,0.00,0,weatherlink.com 1.10,2013-02-17 08:41:00,
2013-02-17 03:56:00,52.0,40.0,30.05,SW,231,3.0,-999.0,65,-99.99,,,0.00,0,weatherlink.com 1.10,2013-02-17 08:56:00,
2013-02-17 04:11:00,51.7,37.0,30.05,WNW,283,7.0,-999.0,57,-99.99,,,0.00,0,weatherlink.com 1.10,2013-02-17 09:11:00,
2013-02-17 04:26:00,51.4,36.0,30.06,West,281,6.0,-999.0,55,-99.99,,,0.00,0,weatherlink.com 1.10,2013-02-17 09:26:00,
2013-02-17 04:41:00,51.0,35.0,30.07,SW,215,3.0,-999.0,55,-99.99,,,0.00,0,weatherlink.com 1.10,2013-02-17 09:41:00,
2013-02-17 04:56:00,50.5,34.0,30.08,NW,323,2.0,-999.0,54,-99.99,,,0.00,0,weatherlink.com 1.10,2013-02-17 09:56:00,
2013-02-17 05:11:00,49.9,34.0,30.08,NW,307,7.0,-999.0,54,-99.99,,,0.00,0,weatherlink.com 1.10,2013-02-17 10:11:00,
2013-02-17 05:26:00,49.6,34.0,30.09,NNW,338,8.0,-999.0,55,-99.99,,,0.00,0,weatherlink.com 1.10,2013-02-17 10:26:00,
2013-02-17 05:41:00,49.4,35.0,30.10,West,277,6.0,-999.0,57,-99.99,,,0.00,0,weatherlink.com 1.10,2013-02-17 10:41:00,
2013-02-17 05:56:00,48.9,35.0,30.11,NNW,337,5.0,-999.0,59,-99.99,,,0.00,0,weatherlink.com 1.10,2013-02-17 10:56:00,
2013-02-17 06:11:00,48.2,34.0,30.11,North,360,10.0,-999.0,58,-99.99,,,0.00,0,weatherlink.com 1.10,2013-02-17 11:11:00,
2013-02-17 06:26:00,47.7,32.0,30.12,NNE,13,12.0,-999.0,55,-99.99,,,0.00,0,weatherlink.com 1.10,2013-02-17 11:26:00,
2013-02-17 06:41:00,47.1,30.0,30.13,North,360,4.0,-999.0,51,-99.99,,,0.00,0,weatherlink.com 1.10,2013-02-17 11:41:00,
2013-02-17 06:56:00,46.5,27.0,30.14,West,276,11.0,-999.0,47,-99.99,,,0.00,5,weatherlink.com 1.10,2013-02-17 11:56:00,
2013-02-17 07:11:00,46.2,25.0,30.14,NW,318,6.0,-999.0,44,-99.99,,,0.00,14,weatherlink.com 1.10,2013-02-17 12:11:00,
2013-02-17 07:26:00,46.2,25.0,30.14,North,350,7.0,-999.0,44,-99.99,,,0.00,21,weatherlink.com 1.10,2013-02-17 12:26:00,
2013-02-17 07:41:00,46.2,25.0,30.15,North,10,7.0,-999.0,43,-99.99,,,0.00,25,weatherlink.com 1.10,2013-02-17 12:41:00,
2013-02-17 07:56:00,46.4,23.0,30.16,NE,42,8.0,-999.0,40,-99.99,,,0.00,28,weatherlink.com 1.10,2013-02-17 12:56:00,
2013-02-17 08:11:00,46.5,23.0,30.17,North,5,4.0,-999.0,40,-99.99,,,0.00,33,weatherlink.com 1.10,2013-02-17 13:11:00,
2013-02-17 08:26:00,47.0,24.0,30.18,West,274,5.0,-999.0,40,-99.99,,,0.00,58,weatherlink.com 1.10,2013-02-17 13:26:00,
2013-02-17 08:41:00,47.4,22.0,30.19,NW,305,10.0,-999.0,37,-99.99,,,0.00,192,weatherlink.com 1.10,2013-02-17 13:41:00,
2013-02-17 08:56:00,47.9,21.0,30.19,North,9,6.0,-999.0,35,-99.99,,,0.00,424,weatherlink.com 1.10,2013-02-17 13:56:00,
2013-02-17 09:11:00,48.3,21.0,30.20,NNW,327,7.0,-999.0,34,-99.99,,,0.00,476,weatherlink.com 1.10,2013-02-17 14:11:00,
2013-02-17 09:26:00,49.2,22.0,30.21,North,360,6.0,-999.0,34,-99.99,,,0.00,529,weatherlink.com 1.10,2013-02-17 14:26:00,
2013-02-17 09:41:00,49.5,22.0,30.21,NW,315,8.0,-999.0,34,-99.99,,,0.00,578,weatherlink.com 1.10,2013-02-17 14:41:00,
2013-02-17 09:56:00,50.4,22.0,30.22,North,360,6.0,-999.0,33,-99.99,,,0.00,621,weatherlink.com 1.10,2013-02-17 14:56:00,
2013-02-17 10:11:00,51.1,22.0,30.22,WNW,296,18.0,-999.0,32,-99.99,,,0.00,666,weatherlink.com 1.10,2013-02-17 15:11:00,
2013-02-17 10:26:00,51.7,21.0,30.22,North,351,6.0,-999.0,30,-99.99,,,0.00,705,weatherlink.com 1.10,2013-02-17 15:26:00,
2013-02-17 10:41:00,52.0,21.0,30.22,NNW,327,3.0,-999.0,30,-99.99,,,0.00,747,weatherlink.com 1.10,2013-02-17 15:41:00,
2013-02-17 10:56:00,53.1,21.0,30.22,NNW,338,14.0,-999.0,28,-99.99,,,0.00,773,weatherlink.com 1.10,2013-02-17 15:56:00,
2013-02-17 11:11:00,53.3,20.0,30.22,NW,321,7.0,-999.0,27,-99.99,,,0.00,802,weatherlink.com 1.10,2013-02-17 16:11:00,
2013-02-17 11:26:00,53.8,20.0,30.22,NE,36,6.0,-999.0,27,-99.99,,,0.00,826,weatherlink.com 1.10,2013-02-17 16:26:00,
2013-02-17 11:41:00,54.7,21.0,30.22,NNE,14,13.0,-999.0,27,-99.99,,,0.00,844,weatherlink.com 1.10,2013-02-17 16:41:00,
2013-02-17 11:56:00,55.1,21.0,30.22,NNE,15,14.0,-999.0,27,-99.99,,,0.00,863,weatherlink.com 1.10,2013-02-17 16:56:00,
2013-02-17 12:11:00,55.1,21.0,30.21,NW,315,3.0,-999.0,27,-99.99,,,0.00,875,weatherlink.com 1.10,2013-02-17 17:11:00,
2013-02-17 12:26:00,55.7,19.0,30.21,North,9,4.0,-999.0,24,-99.99,,,0.00,879,weatherlink.com 1.10,2013-02-17 17:26:00,
2013-02-17 12:41:00,56.0,22.0,30.20,NNW,334,5.0,-999.0,27,-99.99,,,0.00,877,weatherlink.com 1.10,2013-02-17 17:41:00,
2013-02-17 12:56:00,56.3,21.0,30.20,North,5,5.0,-999.0,25,-99.99,,,0.00,875,weatherlink.com 1.10,2013-02-17 17:56:00,
2013-02-17 13:11:00,56.7,23.0,30.20,NNW,332,7.0,-999.0,27,-99.99,,,0.00,872,weatherlink.com 1.10,2013-02-17 18:11:00,
2013-02-17 13:26:00,56.9,24.0,30.20,NNW,346,5.0,-999.0,28,-99.99,,,0.00,858,weatherlink.com 1.10,2013-02-17 18:26:00,
2013-02-17 13:41:00,57.6,23.0,30.19,NNW,346,4.0,-999.0,26,-99.99,,,0.00,842,weatherlink.com 1.10,2013-02-17 18:41:00,
2013-02-17 13:56:00,58.4,23.0,30.19,West,275,6.0,-999.0,25,-99.99,,,0.00,823,weatherlink.com 1.10,2013-02-17 18:56:00,
2013-02-17 14:11:00,57.6,22.0,30.19,WSW,254,3.0,-999.0,25,-99.99,,,0.00,800,weatherlink.com 1.10,2013-02-17 19:11:00,
2013-02-17 14:26:00,58.1,22.0,30.19,NNE,22,6.0,-999.0,25,-99.99,,,0.00,770,weatherlink.com 1.10,2013-02-17 19:26:00,
2013-02-17 14:41:00,58.0,22.0,30.18,North,351,6.0,-999.0,25,-99.99,,,0.00,733,weatherlink.com 1.10,2013-02-17 19:41:00,
2013-02-17 14:56:00,58.3,23.0,30.19,NW,309,4.0,-999.0,26,-99.99,,,0.00,698,weatherlink.com 1.10,2013-02-17 19:56:00,
2013-02-17 15:11:00,58.4,23.0,30.18,WNW,297,3.0,-999.0,26,-99.99,,,0.00,659,weatherlink.com 1.10,2013-02-17 20:11:00,
2013-02-17 15:26:00,58.4,24.0,30.18,NNW,340,3.0,-999.0,27,-99.99,,,0.00,610,weatherlink.com 1.10,2013-02-17 20:26:00,
2013-02-17 15:41:00,59.0,23.0,30.18,NNE,12,10.0,-999.0,25,-99.99,,,0.00,566,weatherlink.com 1.10,2013-02-17 20:41:00,
2013-02-17 15:56:00,58.4,23.0,30.18,North,11,7.0,-999.0,26,-99.99,,,0.00,515,weatherlink.com 1.10,2013-02-17 20:56:00,
2013-02-17 16:11:00,58.4,23.0,30.18,North,5,4.0,-999.0,25,-99.99,,,0.00,464,weatherlink.com 1.10,2013-02-17 21:11:00,
2013-02-17 16:26:00,57.6,22.0,30.18,NE,38,4.0,-999.0,25,-99.99,,,0.00,408,weatherlink.com 1.10,2013-02-17 21:26:00,
2013-02-17 16:41:00,58.3,23.0,30.18,North,360,6.0,-999.0,26,-99.99,,,0.00,350,weatherlink.com 1.10,2013-02-17 21:41:00,
2013-02-17 16:56:00,57.6,24.0,30.18,NNE,28,0.0,-999.0,27,-99.99,,,0.00,287,weatherlink.com 1.10,2013-02-17 21:56:00,
2013-02-17 17:11:00,58.1,25.0,30.18,NW,306,5.0,-999.0,28,-99.99,,,0.00,234,weatherlink.com 1.10,2013-02-17 22:11:00,
2013-02-17 17:26:00,58.1,23.0,30.19,NE,35,2.0,-999.0,26,-99.99,,,0.00,171,weatherlink.com 1.10,2013-02-17 22:26:00,
2013-02-17 17:41:00,57.5,24.0,30.19,North,351,0.0,-999.0,27,-99.99,,,0.00,109,weatherlink.com 1.10,2013-02-17 22:41:00,
2013-02-17 17:56:00,57.2,23.0,30.19,NNE,12,3.0,-999.0,27,-99.99,,,0.00,53,weatherlink.com 1.10,2013-02-17 22:56:00,
2013-02-17 18:11:00,56.9,23.0,30.19,NW,317,1.0,-999.0,27,-99.99,,,0.00,9,weatherlink.com 1.10,2013-02-17 23:11:00,
2013-02-17 18:26:00,56.2,25.0,30.20,NW,317,2.0,-999.0,30,-99.99,,,0.00,0,weatherlink.com 1.10,2013-02-17 23:26:00,
2013-02-17 18:41:00,55.4,25.0,30.20,NW,317,0.0,-999.0,31,-99.99,,,0.00,0,weatherlink.com 1.10,2013-02-17 23:41:00,
2013-02-17 18:56:00,54.7,27.0,30.20,NW,317,0.0,-999.0,34,-99.99,,,0.00,0,weatherlink.com 1.10,2013-02-17 23:56:00,
2013-02-17 19:11:00,54.1,28.0,30.21,NW,317,0.0,-999.0,37,-99.99,,,0.00,0,weatherlink.com 1.10,2013-02-18 00:11:00,
2013-02-17 19:26:00,53.5,28.0,30.21,NW,317,1.0,-999.0,38,-99.99,,,0.00,0,weatherlink.com 1.10,2013-02-18 00:26:00,
2013-02-17 19:41:00,53.2,27.0,30.21,NW,318,4.0,-999.0,37,-99.99,,,0.00,0,weatherlink.com 1.10,2013-02-18 00:41:00,
2013-02-17 19:56:00,53.1,27.0,30.22,WNW,300,3.0,-999.0,37,-99.99,,,0.00,0,weatherlink.com 1.10,2013-02-18 00:56:00,
2013-02-17 20:11:00,52.8,28.0,30.22,NW,314,2.0,-999.0,39,-99.99,,,0.00,0,weatherlink.com 1.10,2013-02-18 01:11:00,
2013-02-17 20:26:00,52.5,30.0,30.23,NW,310,1.0,-999.0,42,-99.99,,,0.00,0,weatherlink.com 1.10,2013-02-18 01:26:00,
2013-02-17 20:41:00,52.2,31.0,30.23,NNW,340,2.0,-999.0,44,-99.99,,,0.00,0,weatherlink.com 1.10,2013-02-18 01:41:00,
2013-02-17 20:56:00,51.6,31.0,30.23,North,360,4.0,-999.0,45,-99.99,,,0.00,0,weatherlink.com 1.10,2013-02-18 01:56:00,
2013-02-17 21:11:00,51.3,30.0,30.23,NNW,327,3.0,-999.0,45,-99.99,,,0.00,0,weatherlink.com 1.10,2013-02-18 02:11:00,
2013-02-17 21:26:00,51.0,31.0,30.23,NW,326,3.0,-999.0,46,-99.99,,,0.00,0,weatherlink.com 1.10,2013-02-18 02:26:00,
2013-02-17 21:41:00,50.7,31.0,30.23,NW,325,0.0,-999.0,48,-99.99,,,0.00,0,weatherlink.com 1.10,2013-02-18 02:41:00,
2013-02-17 21:56:00,50.5,32.0,30.23,NNW,330,2.0,-999.0,49,-99.99,,,0.00,0,weatherlink.com 1.10,2013-02-18 02:56:00,
2013-02-17 22:11:00,50.5,32.0,30.24,NW,319,2.0,-999.0,50,-99.99,,,0.00,0,weatherlink.com 1.10,2013-02-18 03:11:00,
2013-02-17 22:26:00,50.5,33.0,30.24,NW,322,0.0,-999.0,51,-99.99,,,0.00,0,weatherlink.com 1.10,2013-02-18 03:26:00,
2013-02-17 22:41:00,50.4,34.0,30.24,NW,324,3.0,-999.0,54,-99.99,,,0.00,0,weatherlink.com 1.10,2013-02-18 03:41:00,
2013-02-17 22:56:00,50.2,36.0,30.24,NW,310,2.0,-999.0,58,-99.99,,,0.00,0,weatherlink.com 1.10,2013-02-18 03:56:00,
2013-02-17 23:11:00,50.1,36.0,30.24,NW,321,2.0,-999.0,59,-99.99,,,0.00,0,weatherlink.com 1.10,2013-02-18 04:11:00,
2013-02-17 23:26:00,50.1,37.0,30.24,WNW,303,7.0,-999.0,60,-99.99,,,0.00,0,weatherlink.com 1.10,2013-02-18 04:26:00,
2013-02-17 23:41:00,50.1,37.0,30.23,West,261,1.0,-999.0,61,-99.99,,,0.00,0,weatherlink.com 1.10,2013-02-18 04:41:00,
2013-02-17 23:56:00,49.9,37.0,30.23,NW,315,4.0,-999.0,62,-99.99,,,0.00,0,weatherlink.com 1.10,2013-02-18 04:56:00,